Location: Estes Park
(40.3770°N, 105.5210°W)
Time: 00:07:24
(UTC-06:00)

Tiangong 1 - Pass Details

Date: 13 October 2017
Orbit: 292 x 319 km, 42.8° (Epoch: 22 October)

Event Time Altitude Azimuth Distance (km) Brightness Sun altitude
Rises 19:22:50 0° 286° (WNW) 2,039 6.4 -11.9°
Reaches altitude 10° 19:24:50 10° 288° (WNW) 1,203 4.9 -12.2°
Maximum altitude 19:27:32 78° 14° (NNE) 319 0.6 -12.8°
Enters shadow 19:28:41 30° 97° (E) 591 1.4 -13.0°
